Wind_Speed
71 74 77 78 79 80 82 84 85 83 81 79 77 76 74 72 70 67 66 64 62 62 61 61 61 61 62 61 60 59 58 57 56 55 54 53 52 51
62 66 66 66 65 67 72 75 78 81 81 80 79 78 77 75 73 71 70 70 68 67 65 65 64 64 64 63 62 62 61 60 60 59 58 58 56 55
49 53 55 55 56 57 60 63 66 70 74 76 75 76 76 76 76 76 76 74 73 72 71 70 69 69 68 67 66 65 65 65 64 63 62 61 60 60
39 44 48 51 53 55 55 56 57 58 62 66 69 71 72 75 76 76 77 77 76 76 75 74 74 73 73 73 72 70 69 68 67 66 66 66 65 64
37 42 46 48 50 52 53 54 54 53 54 57 60 64 66 69 72 74 75 75 76 76 76 75 75 74 74 74 73 72 72 70 70 68 67 66 66 66
37 40 44 46 49 49 49 51 52 52 52 53 55 57 60 62 65 68 70 71 72 72 72 71 71 71 71 71 72 71 71 70 69 68 67 66 65 65
37 41 44 47 50 49 47 47 50 51 51 51 52 53 54 56 58 61 63 65 66 66 67 67 67 68 68 68 68 67 67 66 66 66 66 65 64 64
35 39 42 47 49 49 48 47 47 49 50 51 51 52 52 53 55 57 58 60 61 61 63 64 64 64 64 64 64 64 64 64 64 64 64 64 64 64
35 36 39 42 46 47 48 48 47 47 49 49 51 52 52 52 53 54 55 56 57 58 60 61 62 63 63 63 63 63 63 63 63 62 62 62 63 63
37 36 37 39 42 44 45 47 47 47 47 49 49 50 52 53 53 53 53 53 54 55 57 58 58 59 60 60 61 61 62 62 62 62 62 63 63 62
38 38 39 39 41 43 44 46 47 48 48 49 50 50 50 50 50 51 52 51 52 52 53 53 53 54 54 55 56 58 59 60 61 61 62 62 62 62
39 39 40 40 41 42 44 45 47 48 49 49 51 51 50 49 49 50 51 51 51 50 50 50 50 51 51 51 53 54 56 57 59 59 60 60 60 60
41 41 41 41 42 43 44 46 48 49 50 50 51 51 51 50 50 50 50 50 50 50 50 49 50 50 50 51 51 52 54 55 55 56 58 58 58 57
43 43 43 43 43 44 45 46 48 49 50 51 51 51 51 51 51 51 50 50 50 50 49 49 49 50 50 50 51 51 51 51 52 52 53 54 53 53
45 46 45 45 44 45 45 46 47 49 49 50 50 51 51 51 51 51 50 50 50 49 49 49 49 49 49 49 49 49 49 49 48 48 48 48 48 48
46 47 47 47 47 46 46 47 48 48 49 49 49 50 51 51 51 50 50 50 50 49 49 48 48 48 48 48 47 47 46 45 44 43 43 43 43 44
47 47 48 48 48 48 48 47 48 48 49 49 49 49 50 50 50 50 49 49 49 48 48 47 46 46 46 46 45 44 43 42 40 39 39 40 40 41
44 47 48 49 50 50 50 49 49 49 49 49 50 49 49 49 49 48 48 47 47 47 47 46 46 45 44 43 42 42 41 40 39 38 37 37 37 38
37 43 47 49 51 51 52 52 51 51 50 50 50 50 49 49 48 48 47 46 45 45 45 45 44 44 43 42 41 41 40 39 38 37 36 36 36 36
28 34 40 46 50 52 53 53 53 53 53 52 51 51 51 50 49 48 47 46 45 44 44 43 43 43 42 41 41 41 41 39 38 36 35 35 35 36
22 26 31 38 44 50 53 54 55 55 55 55 54 53 52 52 51 49 48 47 46 45 44 43 43 42 42 41 41 41 40 38 37 35 34 33 33 33
20 21 25 29 35 42 49 53 56 57 57 57 57 56 55 54 53 52 51 49 47 45 44 44 43 43 42 42 41 40 39 37 35 34 32 31 29 29
19 21 22 24 28 34 41 48 53 57 59 60 60 60 59 58 56 55 53 52 50 47 45 44 43 42 42 41 40 40 38 36 34 32 31 29 27 26
Wind_Direction
248 247 246 246 247 247 247 247 247 245 244 242 242 242 242 241 240 239 238 237 236 236 235 236 237 239 242 243 244 245 246 247 248 249 250 252 253 254
248 244 243 243 244 244 245 245 245 245 244 242 241 240 240 239 238 237 236 236 236 234 234 235 236 238 240 242 243 244 245 247 248 249 251 252 253 254
248 241 238 237 237 237 239 240 241 242 242 241 240 239 238 237 236 236 236 236 235 234 234 234 235 237 239 241 243 244 246 247 248 249 251 252 253 255
244 235 230 230 230 233 234 235 236 238 239 239 237 236 235 235 235 235 235 235 235 235 235 235 236 237 239 242 243 245 246 247 248 249 251 252 253 254
244 234 229 228 227 229 230 232 233 234 235 236 236 235 234 234 234 234 234 234 235 235 236 236 237 239 240 242 244 245 247 248 249 250 251 252 252 253
245 239 234 228 224 224 226 229 230 231 233 234 234 234 234 234 234 235 235 235 235 235 236 237 238 239 241 243 244 246 247 248 249 250 250 251 251 252
248 243 238 233 227 227 226 228 229 230 232 232 233 233 233 234 234 235 235 236 236 237 238 239 240 241 241 243 244 246 247 248 249 249 249 250 250 250
249 245 241 238 235 234 231 229 229 231 231 231 231 232 234 234 234 234 235 236 237 238 239 239 240 242 243 244 245 246 247 247 248 248 248 248 248 248
248 245 241 240 239 238 236 233 231 231 230 231 232 233 235 235 235 236 236 237 237 236 238 239 240 241 242 243 244 245 246 246 246 247 247 247 247 247
245 243 241 239 238 238 237 235 233 232 231 231 232 234 235 236 236 237 237 238 238 238 238 239 240 242 242 243 244 245 245 245 246 246 247 247 247 247
243 242 241 239 237 237 236 235 233 231 231 233 233 234 235 235 236 237 237 238 238 238 239 240 240 241 243 243 243 244 245 245 246 247 247 247 247 247
241 239 238 238 236 235 234 233 231 230 230 231 232 234 234 234 234 234 234 235 237 238 239 240 241 243 244 245 245 245 245 245 246 246 247 246 246 246
239 238 236 235 235 233 231 231 230 229 229 229 229 231 232 232 232 232 233 234 236 238 240 242 243 245 246 247 247 247 246 246 246 246 246 246 245 245
238 236 235 234 233 233 231 231 230 228 228 228 228 228 229 231 231 231 233 235 237 239 240 242 244 246 247 248 248 248 247 246 246 245 245 244 243 243
237 235 234 234 233 233 232 231 230 229 229 228 229 228 229 230 230 231 233 236 238 240 242 244 245 246 247 248 248 248 248 246 244 242 240 239 239 239
237 235 234 233 233 233 232 231 230 230 230 229 229 229 229 229 230 232 234 236 238 240 242 244 245 246 246 246 246 246 245 243 238 235 234 234 234 234
239 237 235 233 232 232 232 231 230 230 229 229 230 230 230 230 230 231 233 235 238 240 241 242 243 243 243 243 242 242 240 236 231 229 229 229 230 231
240 238 236 234 232 231 231 231 231 230 230 229 230 230 230 230 230 231 233 234 237 239 240 241 241 240 239 238 237 236 234 230 227 225 225 227 229 230
243 240 238 236 234 232 231 231 231 230 230 229 229 230 230 230 230 231 232 233 235 237 238 238 238 236 235 234 233 231 229 226 225 225 225 227 230 232
248 243 240 238 236 234 232 232 231 231 230 230 230 229 230 230 230 231 232 233 235 236 236 236 235 233 232 231 231 229 227 226 226 226 227 228 231 235
254 249 244 240 238 236 234 233 232 231 231 231 230 230 230 230 229 230 231 233 234 235 235 234 233 232 230 229 229 228 227 226 227 228 229 230 233 237
259 256 251 246 242 239 237 235 233 232 232 231 231 230 230 230 229 229 230 231 232 232 233 232 231 230 228 227 227 228 226 225 226 227 229 230 232 236
263 261 258 254 248 243 240 238 236 234 233 232 231 231 231 230 230 230 229 229 230 230 230 230 228 226 225 225 225 226 226 225 223 225 228 230 234 240
Height
5502 5508 5515 5523 5530 5538 5546 5555 5565 5575 5585 5594 5602 5609 5617 5624 5631 5637 5643 5650 5657 5663 5670 5675 5681 5686 5691 5696 5701 5706 5711 5716 5720 5724 5729 5733 5737 5741
5481 5487 5495 5503 5510 5517 5524 5532 5540 5551 5561 5571 5579 5588 5596 5604 5611 5618 5625 5632 5640 5647 5654 5660 5666 5672 5677 5682 5686 5692 5697 5702 5706 5711 5715 5720 5724 5728
5463 5469 5477 5485 5493 5499 5506 5513 5520 5529 5538 5547 5557 5566 5575 5583 5592 5599 5606 5615 5622 5630 5637 5643 5649 5655 5661 5666 5671 5677 5682 5687 5692 5697 5701 5706 5710 5715
5449 5454 5461 5469 5477 5483 5490 5496 5503 5511 5519 5527 5536 5545 5554 5563 5571 5579 5588 5596 5604 5611 5618 5625 5632 5638 5644 5650 5655 5661 5666 5671 5676 5681 5686 5691 5695 5699
5437 5441 5447 5454 5461 5468 5474 5481 5489 5496 5503 5511 5519 5528 5536 5545 5553 5561 5569 5577 5585 5593 5601 5608 5614 5621 5627 5633 5638 5644 5650 5656 5661 5665 5669 5674 5679 5684
5426 5429 5433 5439 5447 5454 5460 5467 5474 5482 5490 5497 5504 5512 5520 5528 5536 5544 5552 5560 5568 5576 5583 5590 5597 5603 5610 5616 5623 5628 5632 5637 5642 5648 5653 5658 5663 5668
5415 5418 5422 5426 5432 5439 5446 5454 5461 5469 5476 5484 5491 5498 5506 5513 5522 5529 5536 5544 5551 5559 5567 5575 5582 5588 5592 5598 5604 5610 5615 5620 5625 5631 5636 5642 5647 5651
5404 5407 5411 5415 5420 5426 5434 5441 5449 5456 5464 5471 5478 5485 5492 5500 5507 5514 5521 5529 5538 5549 5553 5557 5563 5569 5576 5583 5588 5594 5599 5604 5609 5614 5620 5625 5630 5635
5393 5396 5399 5403 5408 5414 5422 5429 5437 5444 5451 5458 5465 5472 5479 5487 5495 5503 5508 5514 5522 5530 5535 5541 5547 5553 5560 5566 5572 5577 5582 5587 5592 5598 5603 5609 5614 5619
5382 5385 5389 5393 5397 5403 5410 5417 5424 5431 5439 5446 5452 5459 5465 5472 5480 5487 5494 5500 5507 5513 5519 5526 5532 5538 5544 5550 5556 5560 5565 5571 5576 5581 5587 5592 5597 5603
5370 5373 5377 5381 5386 5392 5398 5405 5412 5418 5425 5432 5439 5445 5452 5460 5466 5473 5480 5487 5493 5499 5505 5512 5518 5523 5528 5534 5540 5545 5550 5555 5560 5565 5571 5576 5582 5587
5357 5361 5365 5369 5374 5380 5386 5392 5398 5405 5412 5419 5426 5433 5440 5447 5453 5460 5467 5474 5480 5486 5492 5498 5504 5509 5514 5520 5524 5529 5534 5539 5545 5550 5555 5560 5566 5572
5343 5348 5352 5357 5362 5367 5373 5379 5385 5392 5399 5407 5413 5420 5427 5434 5440 5447 5453 5461 5467 5473 5479 5485 5490 5495 5500 5505 5510 5514 5519 5524 5530 5535 5540 5545 5551 5556
5329 5334 5339 5344 5349 5355 5360 5366 5373 5379 5386 5394 5400 5407 5414 5421 5427 5434 5441 5447 5454 5460 5466 5471 5476 5481 5486 5490 5495 5500 5504 5510 5515 5520 5525 5530 5536 5542
5314 5319 5325 5330 5336 5342 5348 5354 5360 5367 5373 5380 5387 5394 5401 5408 5415 5421 5428 5434 5441 5446 5452 5458 5463 5467 5472 5476 5481 5485 5490 5495 5501 5506 5512 5517 5523 5529
5299 5304 5310 5316 5322 5328 5334 5340 5347 5353 5360 5367 5374 5381 5388 5395 5402 5409 5415 5422 5428 5434 5439 5444 5449 5454 5459 5463 5467 5472 5477 5482 5488 5494 5500 5506 5511 5517
5283 5289 5295 5302 5308 5314 5321 5327 5334 5340 5347 5354 5361 5368 5375 5382 5389 5396 5402 5409 5415 5421 5426 5431 5436 5441 5446 5451 5455 5460 5465 5471 5477 5484 5490 5495 5501 5507
5268 5274 5280 5286 5293 5300 5307 5314 5320 5327 5334 5341 5348 5355 5362 5369 5376 5383 5389 5396 5402 5408 5414 5419 5424 5429 5434 5439 5445 5449 5455 5461 5468 5474 5480 5486 5492 5498
5254 5259 5265 5271 5278 5285 5292 5299 5306 5313 5321 5328 5335 5342 5349 5356 5363 5370 5377 5384 5390 5396 5402 5407 5413 5418 5424 5429 5435 5439 5445 5452 5459 5465 5471 5478 5483 5488
5242 5246 5251 5256 5263 5270 5277 5284 5292 5299 5307 5314 5322 5329 5336 5344 5351 5357 5364 5371 5378 5384 5390 5396 5402 5408 5414 5419 5425 5430 5437 5443 5450 5456 5462 5469 5474 5479
5233 5235 5239 5243 5248 5255 5262 5269 5277 5284 5292 5300 5308 5315 5323 5330 5338 5345 5352 5359 5366 5373 5379 5386 5392 5398 5404 5410 5416 5421 5428 5435 5441 5447 5453 5459 5465 5470
5225 5227 5229 5232 5235 5240 5246 5253 5261 5269 5277 5285 5293 5301 5309 5317 5324 5332 5340 5348 5355 5362 5368 5375 5382 5388 5394 5401 5407 5412 5419 5426 5433 5439 5444 5451 5456 5461
5218 5219 5220 5222 5225 5228 5233 5238 5245 5252 5260 5269 5277 5285 5294 5302 5310 5319 5327 5335 5343 5350 5357 5364 5372 5379 5385 5392 5398 5404 5410 5418 5425 5431 5436 5442 5447 5452